SCP
0 0 0 0 0 0 0 0 0 0 0 0 0 0 0 0 0 0 0 0 0 0 0 0 0 0 0 0 0 0 0 0 0 0 0 0 0 0 0 0 0 0 0 0
0 0 0 0 0 0 0 0 0 0 0 0 0 0 0 0 0 0 0 0 0 0 0 0 0 0 0 0 0 0 0 0 0 0 0 0 0 0 0 0 0 0 0 0
0 0 0 0 0 0 0 0 0 0 0 0 0 0 0 0 0 0 0 0 0 0 0 0 0 0 0 0 0 0 0 0 0 0 0 0 0 0 0 0 0 0 0 0
0 0 0 0 0 0 0 0 0 0 0 0 0 0 0 0 0 0 0 0 0 0 0 0 0 0 0 0 0 0 0 0 0 0 0 0 0 0 0 0 0 0 0 0
0 0 0 0 0 0 0 0 0 0 0 0 0 0 0 0 0 0 0 0 0 0 0 0 0 0 0 0 0 0 0 0 0 0 0 0 0 0 0 0 0 0 0 0
0 0 0 0 0 0 0 0 0 0 0 0 0 0 0 0 0 0 0 0 0 0 0 0 0 0 0 0 0 0 0 0 0 0 0 0 0 0 0 0 0 0 0 0
0 0 0 0 0 0 0 0 0 0 0 0 0 0 0 0 0 0 0 0 0 0 0 0 0 0 0 0 0 0 0 0 0 0 0 0 0 0 0 0 0 0 0 0
0 0 0 0 0 0 0 0 0 0 0 0 0 0 0 0 0 0 0 0 0 0 0 0 0 0 0 0 0 0 0 0 0 0 0 0 0 0 0 0 0 0 0 0
0 0 0 0 0 0 0 0 0 0 0 0 0 0 0 0 0 0 0 0 0 0 0 0 0 0 0 0 0 0 0 0 0 0 0 0 0 0 0 0 0 0 0 0
0 0 0 0 0 0 0 0 0 0 0 0 0 0 0 0 0 0 0 0 0 0 0 0 0 0 0 0 0 0 0 0 0 0 0 0 0 0 0 0 0 0 0 0
0 0 0 0 0 0 0 0 0 0 0 0 0 0 0 0 0 0 0 0 0 0 0 0 0 0 0 0 0 0 0 0 0 0 0 0 0 0 0 0 0 0 0 0
0 0 0 0 0 0 0 0 0 0 0 0 0 0 0 0 0 0 0 0 0 0 0 0 0 0 0 0 0 0 0 0 0 0 0 0 0 0 0 0 0 0 0 0
0 0 0 -0 0 0 0 0 0 0 0 0 0 0 0 0 0 0 0 0 0 0 0 0 0 0 0 0 0 0 0 0 0 0 0 0 0 0 0 0 0 0 0 0
0 0 0 0 0 0 0 0 0 0 0 0 0 0 0 0 0 0 0 0 0 0 0 0 0 0 0 0 0 0 0 0 0 0 0 0 0 0 0 0 0 0 0 0
0 0 0 0 0 0 0 0 0 0 0 0 0 0 0 0 0 0 0 0 0 0 0 0 0 0 0 0 0 0 0 0 0 0 0 0 0 0 0 0 0 0 0 0
0 0 0 0 0 0 0 -0 0 0 0 0 0 0 0 0 0 0 0 0 0 0 0 0 0 0 0 0 0 0 0 0 0 0 0 0 0 0 0 0 0 0 0 0
0 0 0 0 0 0 0 0 0 0 0 0 0 0 0 0 0 0 0 0 0 0 0 0 0 0 0 0 0 0 0 0 0 0 0 0 0 0 0 0 0 0 0 0
0 0 0 0 0 0 0 0 0 0 0 0 0 0 0 0 0 0 0 0 0 0 0 0 0 0 0 0 0 0 0 0 0 0 0 0 0 0 0 0 0 0 0 0
0 0 0 0 0 0 0 0 0 0 0 0 0 0 0 0 0 0 0 0 0 0 0 0 0 0 0 0 0 0 0 0 0 0 0 0 0 0 0 0 0 0 0 0
0 0 0 0 0 0 0 0 0 0 0 0 0 0 0 0 0 0 0 0 0 0 0 0 0 0 0 0 0 0 0 0 0 0 0 0 0 0 0 0 0 0 0 0
0 0 0 0 0 0 0 0 0 0 0 0 0 0 0 0 0 0 0 0 0 0 0 0 0 0 0 0 0 0 0 0 0 0 0 0 0 0 0 0 0 0 0 0
0 0 0 0 0 0 0 0 0 0 0 0 0 0 0 0 0 0 0 0 0 0 0 0 0 0 0 0 0 0 0 0 0 0 0 0 0 0 0 0 0 0 0 0
0 0 0 0 0 0 0 0 0 0 0 0 0 0 0 0 0 0 0 0 0 0 0 0 0 0 0 0 0 0 0 0 0 0 0 0 0 0 0 0 0 0 0 0
0 0 0 0 0 0 0 0 0 0 0 0 0 0 0 0 0 0 0 0 0 0 0 0 0 0 0 0 0 0 0 0 0 0 0 0 0 0 0 0 0 0 0 0
0 0 0 0 0 0 0 0 0 0 0 0 0 0 0 0 0 0 0 0 0 0 0 0 0 0 0 0 0 0 0 0 0 0 0 0 0 0 0 0 0 0 0 0
0 0 0 0 0 0 0 0 0 0 0 0 0 0 0 0 0 0 0 0 0 0 0 0 0 0 0 0 0 0 0 0 0 0 0 0 0 0 0 0 0 0 0 0
0 0 0 0 0 0 -0 0 0 0 0 0 0 0 0 0 0 0 0 0 0 0 0 0 0 0 0 0 0 0 0 0 0 0 0 0 0 0 0 0 0 0 0 0
Wind_Speed
9 8 6 8 9 11 15 13 11 12 12 14 7 6 5 2 5 7 8 11 12 12 12 11 11 10 10 9 8 7 6 6 5 4 4 5 6 6 7 7 9 7 8 8
7 8 6 9 14 15 16 18 19 17 20 15 9 7 5 5 5 8 10 12 13 13 13 13 13 12 10 9 8 7 7 5 4 4 5 6 6 7 7 8 8 8 7 8
6 1 4 12 15 15 11 12 10 17 17 8 7 6 6 6 7 9 11 12 14 15 15 13 13 11 11 9 8 8 6 5 5 5 5 6 7 7 8 8 8 7 7 8
4 4 11 12 3 5 11 11 12 13 11 9 9 7 6 7 9 10 10 11 13 13 13 11 11 10 10 9 9 8 7 6 6 6 6 6 6 7 8 7 7 7 7 8
3 5 12 12 7 5 7 9 11 16 16 15 8 6 8 11 11 11 10 10 11 12 11 11 11 12 12 10 9 8 8 8 7 7 7 7 7 8 7 7 7 6 7 8
4 6 11 11 2 2 2 9 10 12 13 11 2 3 9 5 5 7 6 7 9 10 11 12 12 13 13 12 11 11 10 9 8 7 7 7 7 7 6 6 6 6 6 7
7 9 14 10 4 5 5 10 6 9 10 8 9 12 9 4 5 6 7 7 9 11 11 13 14 14 14 13 14 12 9 8 8 7 7 7 6 5 6 6 6 5 7 7
8 9 16 7 9 11 13 4 3 6 8 8 10 11 9 8 8 8 8 8 10 10 10 11 15 15 15 15 12 10 9 8 7 7 6 5 5 5 5 5 5 5 5 6
15 16 8 10 13 10 4 5 6 6 7 7 9 11 11 10 9 9 10 10 9 10 10 11 15 16 17 14 12 11 10 9 7 7 6 5 5 5 4 3 3 4 4 5
9 12 10 9 10 11 11 13 13 12 11 9 11 13 13 10 9 9 10 11 10 11 13 14 15 15 13 12 13 12 11 9 7 6 5 5 4 4 3 3 3 3 4 5
10 8 8 11 12 16 16 14 14 14 13 12 12 14 14 11 10 10 10 11 12 14 16 16 15 15 13 13 14 13 11 9 7 6 5 4 4 4 4 4 4 4 3 3
15 9 9 11 8 9 11 13 13 13 14 12 11 14 13 12 10 9 10 11 12 15 15 15 16 16 14 14 15 14 11 10 7 6 5 4 3 3 6 6 8 9 8 7
20 16 15 17 17 15 13 14 14 13 14 14 12 11 12 11 9 8 10 13 17 18 16 15 16 17 16 16 16 15 12 10 8 7 6 5 4 3 3 4 6 7 7 8
14 14 17 16 16 16 15 15 14 13 12 11 11 10 9 9 8 9 13 15 15 14 15 16 17 18 17 17 17 15 12 13 10 7 6 5 5 4 3 2 3 3 5 7
16 16 17 16 16 14 12 11 12 12 11 11 9 9 9 10 12 13 12 10 11 14 15 16 18 18 17 18 18 16 13 9 8 7 6 6 5 4 3 3 3 3 3 3
13 13 13 14 15 13 12 11 11 11 10 10 10 10 11 11 12 10 9 11 14 18 18 18 18 17 18 19 17 14 12 17 13 8 7 6 5 5 4 3 3 2 2 2
10 10 10 10 11 10 9 9 9 10 10 11 12 12 11 10 9 10 10 12 14 15 16 17 16 15 18 19 17 13 11 14 19 11 8 7 6 5 5 4 3 3 3 3
5 6 7 7 8 9 9 9 9 10 11 12 12 11 10 10 12 12 10 9 10 12 13 13 13 15 18 18 15 12 12 11 10 9 8 7 7 6 5 4 4 4 3 3
7 7 8 9 8 8 8 9 10 10 11 10 10 11 11 11 11 10 7 9 13 15 12 13 22 19 17 20 19 11 12 12 11 10 8 11 9 6 6 5 5 4 3 2
6 6 7 8 8 7 9 9 10 10 10 10 11 12 13 12 10 8 8 11 12 9 9 14 18 15 17 19 22 12 13 14 13 11 10 9 8 7 7 6 5 4 3 3
7 8 8 8 9 10 10 10 11 12 11 10 11 13 14 13 10 8 8 10 8 8 11 21 16 13 15 17 22 12 13 13 13 12 11 10 9 8 7 7 6 5 4 3
7 8 10 10 11 12 10 10 11 12 12 11 11 11 12 13 10 9 10 9 6 13 11 12 11 17 21 22 14 13 13 13 12 11 10 10 9 9 8 8 6 5 5 4
9 10 11 11 12 13 12 11 12 12 12 12 12 12 12 11 8 8 9 5 5 14 11 10 16 26 30 19 13 13 14 14 13 12 11 10 10 9 8 8 7 6 5 4
11 11 11 11 11 12 14 14 12 11 11 12 11 11 10 9 8 7 7 8 11 14 10 14 25 29 29 14 13 13 13 13 12 11 11 10 9 8 8 8 7 6 6 6
11 11 11 11 12 11 13 13 12 12 12 10 10 10 8 7 8 6 5 6 11 13 8 16 26 29 20 11 13 13 12 12 12 11 11 10 10 9 8 8 8 7 6 5
11 11 11 12 12 11 11 10 10 10 9 10 9 7 6 5 6 6 5 6 9 12 9 8 13 19 13 12 12 13 12 13 14 12 11 11 11 10 9 9 10 7 6 6
12 11 10 10 10 9 9 9 10 10 9 10 11 8 6 5 5 6 6 5 6 7 7 8 9 11 11 11 11 11 11 11 11 11 11 10 10 10 10 10 8 7 6 6
Wind_Direction
270 278 247 240 236 209 212 218 227 243 250 259 266 291 299 267 190 188 185 188 191 190 187 184 183 184 183 181 174 173 183 205 226 248 273 282 283 283 283 282 286 282 284 289
275 256 252 264 252 237 231 233 243 260 271 269 279 276 269 261 228 213 207 200 197 193 189 188 187 184 179 178 171 165 181 202 219 245 261 269 277 280 281 280 278 278 280 285
270 232 329 267 245 221 217 218 210 235 246 271 270 257 253 258 248 230 219 204 197 196 195 191 186 177 175 171 158 163 181 200 218 236 255 264 275 280 280 281 279 280 280 280
275 310 251 247 252 228 218 234 219 241 263 277 270 284 277 259 250 245 225 206 197 193 191 182 170 164 159 155 160 172 188 203 214 227 245 257 266 273 276 276 277 279 280 280
237 257 271 278 250 203 212 265 226 231 251 260 271 324 285 253 232 229 220 201 192 184 177 168 161 156 152 159 167 179 195 205 211 218 235 250 260 266 270 277 282 281 282 284
207 227 248 256 182 96 121 278 244 208 230 247 200 291 272 248 212 218 204 181 172 166 163 162 159 153 159 172 180 195 200 204 207 213 226 241 254 265 275 281 281 288 291 290
219 233 257 260 141 122 187 247 217 196 216 220 200 223 240 211 214 211 199 180 166 165 171 169 160 159 172 182 196 197 190 194 203 211 224 239 254 266 277 283 291 298 301 300
193 215 251 208 153 192 223 265 237 222 223 225 233 249 252 236 227 211 200 184 173 173 173 164 163 169 183 195 193 179 181 188 198 211 226 237 248 264 272 286 300 305 308 310
199 218 244 174 205 227 273 286 274 266 262 250 254 260 260 250 233 215 202 192 182 177 172 171 175 181 191 191 174 173 177 187 197 210 220 227 238 256 273 286 292 300 308 312
241 248 256 240 239 255 258 257 262 264 266 262 258 262 265 257 240 218 203 193 183 177 183 186 185 192 194 177 169 170 177 186 194 203 215 226 234 236 244 261 280 294 303 309
255 264 280 264 244 246 254 257 261 262 257 252 253 260 259 257 242 220 205 193 188 193 196 194 188 194 190 174 167 171 177 185 191 196 202 218 231 231 237 225 233 263 257 272
256 252 250 262 258 251 255 261 262 265 270 263 248 256 259 254 241 218 203 192 195 200 200 193 189 193 188 175 170 172 180 185 187 188 195 202 218 256 274 259 267 282 286 294
263 268 265 270 274 273 270 271 271 269 268 273 269 256 254 253 243 217 202 198 202 203 199 192 190 192 186 177 174 177 180 180 181 184 188 192 196 211 255 286 288 293 294 304
274 281 277 274 273 274 272 274 277 278 277 273 273 268 257 254 244 220 215 210 203 197 197 195 193 193 185 178 177 180 178 182 180 180 182 185 189 197 209 235 278 291 301 309
267 266 270 275 277 280 281 284 288 289 290 287 277 269 261 254 247 238 225 202 191 195 199 199 198 192 180 178 179 179 178 178 177 173 178 181 182 188 203 225 244 267 286 309
279 280 282 285 288 292 295 296 294 295 298 296 291 279 267 257 253 247 217 190 192 203 202 202 201 188 177 178 178 178 180 182 175 175 177 178 180 187 199 210 230 255 272 273
286 292 295 299 304 310 313 312 306 303 305 302 295 290 282 271 263 251 228 207 207 209 204 203 196 180 176 177 177 176 174 181 180 178 178 178 180 185 190 194 210 234 248 262
350 345 342 338 335 331 325 320 314 308 299 291 291 290 282 267 259 255 236 211 209 214 208 198 186 178 177 176 176 172 171 173 175 175 175 178 181 183 183 189 204 224 240 267
2 354 345 338 331 321 312 306 300 294 291 295 298 294 284 271 261 257 230 204 210 220 209 190 189 181 178 181 176 172 169 170 173 175 175 186 187 182 182 187 199 209 218 230
336 330 329 322 317 310 302 301 302 304 307 311 307 301 295 286 274 259 230 222 221 213 185 185 188 181 179 183 178 174 172 171 172 174 176 180 180 181 184 189 192 196 204 215
319 317 318 316 313 311 309 312 313 307 302 301 298 295 292 289 278 256 240 245 229 191 183 190 187 180 179 182 181 177 174 172 172 174 176 179 180 182 183 184 186 190 194 202
312 313 312 309 308 306 305 304 299 296 294 293 292 291 291 290 282 262 242 242 217 191 186 190 185 182 181 182 183 178 176 173 172 172 175 177 179 181 181 180 182 186 187 191
304 301 300 298 295 293 293 289 286 285 284 285 286 286 283 281 275 266 269 239 203 202 193 189 188 187 186 182 181 180 177 175 174 174 176 177 178 178 178 178 179 178 178 185
295 292 288 285 286 289 288 285 279 276 274 276 273 269 271 279 279 255 247 234 215 211 199 192 192 191 188 182 179 179 178 176 174 173 173 173 173 172 172 172 172 173 177 181
286 285 284 284 284 282 281 283 284 281 279 277 274 267 257 251 260 268 248 226 222 218 199 197 195 193 187 179 180 180 178 176 173 170 172 172 173 173 172 170 171 172 174 178
285 283 280 274 274 278 280 280 280 279 278 281 282 274 262 253 255 259 248 228 223 217 196 186 191 194 184 178 180 179 176 175 175 175 173 172 171 171 171 171 170 171 172 174
282 280 281 281 276 270 271 272 274 276 273 275 280 277 264 256 253 251 245 232 222 209 189 183 185 185 178 176 177 176 175 172 171 170 171 171 171 172 172 169 169 168 166 167